Weather History for KFFX - October, 2013

Change the Weather History Date:

Thursday, October 17, 2013

  Actual Average (KMKG) Record (KMKG)
Temperature  
Mean Temperature 44 °F 50 °F  
Max Temperature 50 °F 58 °F 78 °F (1968)
Min Temperature 37 °F 42 °F 25 °F (1977)
Degree Days  
Heating Degree Days 22 15  
Month to date heating degree days 210  
Since 1 July heating degree days 383  
Cooling Degree Days 0 0  
Month to date cooling degree days 2  
Year to date cooling degree days 563  
Moisture  
Dew Point 45 °F    
Average Humidity 96    
Maximum Humidity 100    
Minimum Humidity 87    
Precipitation  
Precipitation 0.00 in 0.09 in 1.60 in (1905)
Month to date precipitation 1.70  
Year to date precipitation 26.17  
Snow  
Snow 0.00 in 0.00 in 1.00 in (1952)
Month to date snowfall 0.0  
Since 1 July snowfall 0.0  
Since 1 September snowfall 0.0  
Snow Depth -    
Sea Level Pressure  
Sea Level Pressure 29.83 in    
Wind  
Wind Speed 2 mph (NNW)    
Max Wind Speed 12 mph    
Max Gust Speed -    
Visibility 9 miles    
Events Rain    
T = Trace of Precipitation, MM = Missing Value Source: NWS Daily Summary

Daily Weather History Graph

Daily Weather History Graph

Search for Another Location

Airport or City:

Trip Planner

Search our weather history database for the weather conditions in past years. The results will help you decide how hot, cold, wet, or windy it might be!

Date:

Astronomy

Oct. 17, 2013 Rise Set
Actual Time 8:00 AM EDT 6:57 PM EDT
Civil Twilight 7:31 AM EDT 7:25 PM EDT
Nautical Twilight 6:58 AM EDT 7:59 PM EDT
Astronomical Twilight 6:25 AM EDT 8:32 PM EDT
Moon 6:11 PM EDT (10/17) 6:30 AM EDT (10/17)
Length of Visible Light 11h 54m
Length of Day
10h 56m
Waxing Gibbous, 98% of the Moon is Illuminated
Oct 17
Waxing Gibbous
Oct 18
Full
Oct 26
Last Quarter
Nov 3
New
Nov 10
First Quarter

Hourly Weather History & Observations

Time (EDT) Temp. Windchill Dew Point Humidity Pressure Visibility Wind Dir Wind Speed Gust Speed Precip Events Conditions
12:05 AM 50.0 °F - 48.2 °F 94% 29.88 in 10.0 mi Calm Calm - N/A   Overcast
12:40 AM 50.0 °F - 48.2 °F 94% 29.88 in 10.0 mi Calm Calm - N/A   Drizzle
1:00 AM 50.0 °F - 48.2 °F 94% 29.88 in 10.0 mi Calm Calm - N/A Rain Light Rain
1:17 AM 48.2 °F - 48.2 °F 100% 29.88 in 10.0 mi Calm Calm - N/A   Overcast
1:48 AM 48.2 °F - 48.2 °F 100% 29.88 in 10.0 mi Calm Calm - N/A   Overcast
1:57 AM 48.2 °F - 48.2 °F 100% 29.88 in 10.0 mi Calm Calm - N/A   Overcast
2:17 AM 48.2 °F - 48.2 °F 100% 29.88 in 10.0 mi Calm Calm - N/A   Overcast
2:57 AM 48.2 °F - 48.2 °F 100% 29.88 in 10.0 mi Calm Calm - N/A   Overcast
3:21 AM 50.0 °F - 48.2 °F 94% 29.88 in 10.0 mi Calm Calm - N/A   Overcast
3:37 AM 48.2 °F - 48.2 °F 100% 29.88 in 10.0 mi Calm Calm - N/A   Overcast
3:58 AM 48.2 °F - 48.2 °F 100% 29.87 in 10.0 mi Calm Calm - N/A   Overcast
4:16 AM 48.2 °F - 48.2 °F 100% 29.87 in 10.0 mi Calm Calm - N/A   Overcast
4:36 AM 48.2 °F - 48.2 °F 100% 29.87 in 10.0 mi Calm Calm - N/A   Overcast
5:16 AM 48.2 °F - 48.2 °F 100% 29.86 in 10.0 mi Calm Calm - N/A   Overcast
5:36 AM 48.2 °F - 46.4 °F 93% 29.86 in 10.0 mi Calm Calm - N/A   Overcast
5:56 AM 48.2 °F - 46.4 °F 93% 29.86 in 10.0 mi Calm Calm - N/A   Overcast
6:16 AM 48.2 °F - 46.4 °F 93% 29.86 in 10.0 mi Calm Calm - N/A   Overcast
6:36 AM 48.2 °F - 46.4 °F 93% 29.85 in 10.0 mi Calm Calm - N/A   Overcast
6:58 AM 48.2 °F - 44.6 °F 87% 29.86 in 10.0 mi Calm Calm - N/A   Overcast
7:19 AM 48.2 °F - 46.4 °F 93% 29.85 in 10.0 mi Calm Calm - N/A   Overcast
7:36 AM 48.2 °F - 46.4 °F 93% 29.86 in 10.0 mi Calm Calm - N/A   Overcast
7:57 AM 48.2 °F - 46.4 °F 93% 29.86 in 10.0 mi Calm Calm - N/A   Drizzle
8:16 AM 48.2 °F - 46.4 °F 93% 29.86 in 4.0 mi Calm Calm - N/A   Drizzle
8:36 AM 48.2 °F - 46.4 °F 93% 29.85 in 10.0 mi NNE 3.5 mph - N/A   Overcast
8:56 AM 48.2 °F - 46.4 °F 93% 29.84 in 10.0 mi ENE 3.5 mph - N/A   Overcast
9:16 AM 48.2 °F - 44.6 °F 87% 29.85 in 10.0 mi East 3.5 mph - N/A   Overcast
9:37 AM 48.2 °F - 44.6 °F 87% 29.84 in 10.0 mi NE 4.6 mph - N/A   Overcast
9:58 AM 48.2 °F - 44.6 °F 87% 29.85 in 10.0 mi NNE 5.8 mph - N/A   Overcast
10:27 AM 46.4 °F 45.2 °F 46.4 °F 100% 29.84 in 3.0 mi NE 3.5 mph - N/A Rain Rain
10:37 AM 46.4 °F 44.3 °F 46.4 °F 100% 29.84 in 3.0 mi NNE 4.6 mph - N/A Rain Light Rain
11:17 AM 46.4 °F 43.5 °F 46.4 °F 100% 29.83 in 7.0 mi ENE 5.8 mph - N/A Rain Light Rain
11:57 AM 46.4 °F 45.2 °F 46.4 °F 100% 29.83 in 7.0 mi North 3.5 mph - N/A Rain Rain
12:17 PM 46.4 °F 44.3 °F 46.4 °F 100% 29.82 in 7.0 mi North 4.6 mph - N/A Rain Rain
12:37 PM 46.4 °F 42.4 °F 46.4 °F 100% 29.81 in 7.0 mi North 8.1 mph - N/A Rain Rain
12:57 PM 46.4 °F 41.9 °F 46.4 °F 100% 29.80 in 7.0 mi North 9.2 mph - N/A Rain Rain
1:17 PM 46.4 °F 42.9 °F 46.4 °F 100% 29.80 in 10.0 mi North 6.9 mph - N/A Rain Light Rain
1:42 PM 46.4 °F 42.4 °F 46.4 °F 100% 29.78 in 7.0 mi North 8.1 mph - N/A Rain Rain
1:57 PM 46.4 °F 42.4 °F 46.4 °F 100% 29.78 in 10.0 mi North 8.1 mph - N/A Rain Light Rain
2:16 PM 46.4 °F 41.1 °F 46.4 °F 100% 29.78 in 7.0 mi NNW 11.5 mph - N/A Rain Rain
2:37 PM 48.2 °F - 46.4 °F 93% 29.77 in 7.0 mi NNW 9.2 mph - N/A Rain Rain
2:56 PM 46.4 °F 41.9 °F 46.4 °F 100% 29.77 in 4.0 mi NNW 9.2 mph - N/A Rain Light Rain
3:36 PM 46.4 °F 41.5 °F 46.4 °F 100% 29.77 in 10.0 mi NNW 10.4 mph - N/A   Drizzle
3:57 PM 48.2 °F - 46.4 °F 93% 29.77 in 10.0 mi North 6.9 mph - N/A Rain Rain
4:16 PM 48.2 °F - 46.4 °F 93% 29.77 in 10.0 mi NW 6.9 mph - N/A Rain Rain
4:36 PM 48.2 °F - 46.4 °F 93% 29.77 in 10.0 mi NNW 5.8 mph - N/A Rain Rain
4:59 PM 48.2 °F - 46.4 °F 93% 29.76 in 10.0 mi North 3.5 mph - N/A   Light Drizzle
5:16 PM 48.2 °F - 46.4 °F 93% 29.76 in 10.0 mi Calm Calm - N/A   Overcast
5:43 PM 48.2 °F - 46.4 °F 93% 29.77 in 10.0 mi Calm Calm - N/A   Overcast
6:02 PM 48.2 °F - 44.6 °F 87% 29.77 in 10.0 mi WNW 4.6 mph - N/A   Mostly Cloudy
6:35 PM 46.4 °F 45.2 °F 44.6 °F 93% 29.77 in 10.0 mi West 3.5 mph - N/A   Mostly Cloudy
6:39 PM 46.4 °F 45.2 °F 44.6 °F 93% 29.77 in 10.0 mi West 3.5 mph - N/A   Mostly Cloudy
6:57 PM 46.4 °F 43.5 °F 46.4 °F 100% 29.78 in 10.0 mi West 5.8 mph - N/A   Overcast
7:18 PM 44.6 °F 41.4 °F 41.0 °F 87% 29.79 in 10.0 mi West 5.8 mph - N/A   Scattered Clouds
7:38 PM 44.6 °F 43.1 °F 41.0 °F 87% 29.79 in 10.0 mi West 3.5 mph - N/A   Clear
7:59 PM 42.8 °F 41.1 °F 41.0 °F 93% 29.80 in 10.0 mi WSW 3.5 mph - N/A   Clear
8:23 PM 41.0 °F 39.0 °F 41.0 °F 100% 29.80 in 10.0 mi SW 3.5 mph - N/A   Clear
8:40 PM 41.0 °F 37.1 °F 39.2 °F 93% 29.81 in 10.0 mi SW 5.8 mph - N/A   Clear
8:58 PM 39.2 °F 35.0 °F 39.2 °F 100% 29.81 in 10.0 mi SW 5.8 mph - N/A   Clear
9:17 PM 39.2 °F 35.9 °F 39.2 °F 100% 29.81 in 10.0 mi SW 4.6 mph - N/A   Clear
9:53 PM 39.2 °F - 39.2 °F 100% 29.81 in 10.0 mi Calm Calm - N/A   Clear
9:58 PM 37.4 °F - 37.4 °F 100% 29.81 in 7.0 mi Calm Calm - N/A   Clear
10:19 PM 39.2 °F - 39.2 °F 100% 29.81 in 7.0 mi Calm Calm - N/A   Clear
10:42 PM 37.4 °F - 37.4 °F 100% 29.81 in 1.0 mi Calm Calm - N/A   Mist